#timestamp,LO_Frequency,Hit,StdDev 
1610107215.8,286046998.5,N
1610107235.6,286046996.9,N
1610107255.4,286047001.0,N
1610107275.3,286046999.0,N
1610107295.1,286046997.0,N
1610107315.9,286047000.4,N
1610107335.7,286046999.0,N
1610107355.5,286047002.4,N
1610107375.4,286047002.7,N
1610107395.2,286047000.2,N
1610107415.0,286047001.0,N
1610107416.0,286047001.0,N
1610107435.8,286046999.9,N
1610107455.6,286047001.0,N
1610107475.5,286046998.5,N
1610107495.3,286046999.4,N
1610107515.1,286046996.7,N
1610107535.9,286046997.3,N
1610107555.7,286046996.7,N
1610107575.6,286046997.0,N
1610107595.4,286046997.8,N
1610107615.2,286046999.2,N
1610107635.1,286046998.4,N
1610107636.0,286046998.4,N
1610107655.8,286047002.5,N
1610107675.7,286046999.9,N
1610107695.5,286047000.2,N
1610107715.3,286047002.4,N
1610107735.2,286047002.2,N
1610107755.0,286047002.7,N
1610107755.9,286047002.7,N
1610107775.7,286047002.2,N
1610107795.6,286047005.2,N
1610107815.4,286047011.9,Y
1610107835.3,286047007.3,P
1610107855.1,286047004.6,N
1610107875.8,286047009.2,P
1610107895.7,286047008.4,N
1610107915.5,286047008.4,N
1610107935.4,286047009.2,N
1610107955.2,286047008.7,N
1610107975.0,286047005.6,N
1610107975.9,286047005.6,N
1610107995.8,286047004.1,N
1610108015.6,286047001.6,N
1610108035.5,286047001.6,N
1610108055.3,286047004.3,N
1610108075.1,286047000.6,N
1610108095.9,286046996.5,N
1610108115.7,286047000.0,N
1610108135.5,286047002.2,N
1610108155.4,286047001.9,N
1610108175.2,286047002.0,N
1610108195.1,286047001.5,N
1610108196.0,286047001.5,N
1610108215.8,286047001.3,N
1610108235.6,286047001.3,N
1610108255.5,286047004.2,N
1610108275.3,286047005.9,N
1610108295.2,286047004.2,N
1610108315.9,286047001.5,N
1610108335.7,286047001.4,N
1610108355.6,286046999.7,N
1610108375.4,286047001.9,N
1610108395.2,286047001.8,N
1610108415.1,286046999.8,N
1610108416.0,286046999.8,N
1610108435.8,286047001.9,N
1610108455.7,286047003.2,N
1610108475.5,286047003.8,N
1610108495.3,286047004.1,N
1610108515.2,286047003.9,N
1610108535.0,286047004.4,N
1610108535.9,286047004.4,N
1610108555.8,286047001.7,N
1610108575.6,286047001.5,N
1610108595.4,286047000.6,N
1610108615.3,286047002.4,N
1610108635.1,286046999.8,N
1610108655.9,286047000.6,N
1610108675.7,286046999.7,N
1610108695.5,286047002.3,N
1610108715.4,286047001.8,N
1610108735.2,286047001.8,N
1610108755.0,286047002.4,N
1610108755.9,286047002.4,N
1610108775.8,286047002.8,N
1610108795.6,286047000.1,N
1610108815.5,286047003.9,N
1610108835.3,286047004.3,N
1610108855.1,286047003.9,N
1610108875.9,286047004.0,N
1610108895.7,286047002.6,N
1610108915.6,286047002.6,N
1610108935.4,286047004.1,N
1610108955.2,286047004.0,N
1610108975.1,286047001.3,N
1610108976.0,286047001.3,N
1610108995.8,286047003.0,N
1610109015.6,286047005.4,Y
1610109035.5,286047001.5,P
1610109055.3,286047002.8,P
1610109075.2,286047002.1,P
1610109095.0,286047001.6,Y
1610109095.9,286047001.6,P
1610109115.7,286046998.7,P
1610109135.6,286046999.2,N
1610109155.4,286046996.2,N
1610109175.3,286046994.3,N
1610109195.1,286046995.2,N
1610109215.8,286046994.9,N
1610109235.7,286046995.1,N
1610109255.5,286046996.3,N
1610109275.4,286046996.3,N
1610109295.2,286046993.5,N
1610109315.0,286046992.4,N
1610109315.9,286046992.4,N
1610109335.8,286046990.5,Y
1610109355.6,286046997.4,P
1610109375.4,286046995.3,P
1610109395.3,286046995.1,P
1610109415.1,286046995.3,Y
1610109435.9,286046998.1,P
1610109455.7,286047000.3,N
1610109475.5,286047002.0,N
1610109495.4,286046999.7,N
1610109515.2,286046998.2,N
1610109535.1,286047001.2,N
1610109536.0,286047001.2,N
1610109555.8,286047000.6,N
1610109575.6,286047002.5,N
1610109595.5,286047001.9,N
1610109615.3,286047001.9,N
1610109635.2,286047003.5,N
1610109655.9,286047004.1,N
1610109675.7,286047002.2,N
1610109695.6,286047002.6,N
1610109715.4,286047004.1,N
1610109735.2,286047003.0,N
1610109755.1,286047011.9,Y
1610109756.0,286047005.5,P
1610109775.8,286047003.0,N
1610109795.7,286047002.9,N
1610109815.5,286047003.6,N
1610109835.3,286047003.0,N
1610109855.2,286047003.0,N
1610109875.0,286047004.7,Y
1610109875.9,286047004.7,P
1610109895.8,286046999.8,N
1610109915.6,286047001.1,N
1610109935.4,286046999.0,N
1610109955.3,286046999.4,N
1610109975.1,286046998.4,N
1610109995.9,286046996.6,N
1610110015.7,286046996.9,N
1610110035.5,286046998.8,N
1610110055.4,286046999.8,N
1610110075.2,286047003.7,N
1610110095.0,286047003.6,N
1610110095.9,286047003.6,N
1610110115.8,286047003.9,N
1610110135.6,286047001.4,N
1610110155.5,286047002.0,N
1610110175.3,286047004.1,N
1610110195.1,286047005.2,N
1610110215.9,286047002.9,N
1610110235.7,286047001.6,N
1610110255.5,286047003.1,N
1610110275.4,286047006.8,N
1610110295.2,286047008.5,Y
1610110315.1,286047003.0,P
1610110316.0,286047003.0,P
1610110335.8,286047005.0,P
1610110355.6,286047008.2,Y
1610110375.5,286047003.1,P
1610110395.3,286047000.5,P
1610110415.2,286047000.6,N
1610110435.9,286046998.4,N
1610110455.7,286046999.5,N
1610110475.6,286046999.4,N
1610110495.4,286046996.7,N
1610110515.2,286046999.1,N
1610110535.1,286046997.2,N
1610110536.0,286046997.2,N
1610110555.8,286046996.6,N
1610110575.7,286046997.0,N
1610110595.5,286046996.2,N
1610110615.3,286046995.6,N
1610110635.2,286046996.3,N
1610110655.0,286046995.4,N
1610110655.9,286046995.4,N
1610110675.8,286046996.3,N
1610110695.6,286046993.6,N
1610110715.4,286046995.9,N
1610110735.3,286046994.2,N
1610110755.1,286046994.0,N
1610110775.8,286046995.4,N
1610110795.7,286046997.0,N
